[[{"header":{"parameterUnit":"m.s-1","parameterCategory":1,"la1":30.2991,"la2":30.254,"lo1":-89.0895,"lo2":-89.0444,"dy":0.0017,"dx":0.0017,"nx":28,"ny":28,"refTime":"2025-05-19T09:00:00:Z","depth":0,"parameterNumber":2,"parameterNumberName":"U-component_of_WINDS"},"data":[0,0,0,0,0,0,0,0,0,0,0,0,0,0,0,0,0,0,0,0,0,0,0,0,0,0,0,0,0,0,0,0,0,0,0,0,0,0,0,0,0,0,0,0,0,0,0,0,0,0,0,0,0,0,0,0,0,0,0.0136,0.0136,0,0.0174,0.0174,0.0174,0.0173,0.0172,0.0172,0.0171,0.0208,0.0209,0.0211,0,0,0,0,0,0,0,0,0,0,0,0,0,0.006,0.0062,0.0136,0.0136,0.0137,0.0173,0.0174,0.0174,0.0173,0.0172,0.0172,0.0171,0.0207,0.0209,0.0211,0,0,0,0,0,0,0,0,0,0,0,0,0,0.0095,0.0062,0.0136,0.0141,0.0141,0.0173,0.0174,0.0175,0.0173,0.0172,0.0171,0.0171,0.0207,0.0209,0.0211,0.024,0,0,0.0218,0.0219,0,0,0,0,0,0,0,0,0.0093,0.0098,0.0139,0.014,0.0141,0.0168,0.0161,0.0196,0.0173,0.0161,0.0171,0.017,0.0195,0.0198,0.0207,0.0242,0.0243,0.0218,0.0219,0.022,0.0221,0,0,0,0,0,0,0,0.0091,0.0096,0.0151,0.014,0.0141,0.014,0.0144,0.0167,0.0182,0.0162,0.0162,0.0166,0.0195,0.0205,0.0207,0.0244,0.0218,0.022,0.0221,0.0222,0.0303,0.0304,0,0,0,0,0,0,0.0088,0.0094,0.015,0.0152,0.0115,0.0142,0.0147,0.016,0.0182,0.0184,0.0167,0.0166,0.0201,0.0205,0.0209,0.0243,0.022,0.0222,0.0223,0.0302,0.0303,0.0304,0,0,0,0,0,0,0.0086,0.0093,0.0148,0.0123,0.013,0.0144,0.0159,0.0161,0.017,0.0185,0.0188,0.0174,0.0201,0.0206,0.0232,0.0245,0.0223,0.0225,0.0301,0.0303,0.0304,0.0313,0,0,0,0,0,0,0.0084,0.0092,0.0104,0.0123,0.0131,0.0172,0.016,0.0162,0.0175,0.0174,0.0193,0.0195,0.0201,0.0229,0.0234,0.0247,0.0227,0.03,0.0302,0.0303,0.0312,0.0315,0.0317,0,0,0,0,0,0.0081,0.0105,0.0105,0.0111,0.0147,0.0172,0.0177,0.0183,0.0176,0.0187,0.0196,0.0194,0.0243,0.0232,0.0238,0.0251,0.03,0.0302,0.0303,0.0311,0.0314,0.0317,0,0,0,0,0,0,0.0086,0.0108,0.0107,0.0138,0.0154,0.0172,0.0187,0.0187,0.0204,0.0202,0.0209,0.0213,0.0239,0.0248,0.0236,0.028,0.027,0.0273,0.0273,0.0277,0.0279,0.0276,0.0229,0,0,0,0,0,0.0091,0.0111,0.0128,0.0153,0.0161,0.0173,0.0184,0.0188,0.0203,0.021,0.0221,0.0236,0.0254,0.0266,0.0284,0.0313,0.0317,0.0326,0.0328,0.033,0.0333,0.0348,0.0352,0.0311,0.0311,0.0311,0,0,0.01,0.0115,0.0127,0.0155,0.0167,0.0186,0.0178,0.0199,0.0213,0.0213,0.0238,0.0247,0.0264,0.0292,0.0304,0.03,0.0345,0.0333,0.0334,0.0336,0.035,0.0354,0.0357,0.0312,0.0312,0.0312,0,0,0.0128,0.0141,0.0163,0.0176,0.0195,0.0202,0.0207,0.0226,0.0232,0.0258,0.0257,0.0274,0.0306,0.0317,0.0327,0.0359,0.0357,0.0364,0.0377,0.0392,0.0395,0.0398,0.0408,0.0412,0.0367,0.0367,0.0367,0,0.0137,0.0167,0.0175,0.0196,0.0207,0.0208,0.023,0.0242,0.0265,0.0273,0.0267,0.0307,0.0318,0.0348,0.0355,0.0364,0.0369,0.0362,0.0394,0.0397,0.04,0.041,0.0414,0.0367,0.0367,0.0367,0.0367,0,0.0178,0.0198,0.0214,0.0237,0.025,0.0272,0.0281,0.0294,0.0296,0.0304,0.0329,0.0343,0.0363,0.0371,0.0373,0.0401,0.0397,0.0393,0.0383,0.0404,0.0414,0.0417,0.0368,0.0368,0.0368,0.0368,0,0,0.0209,0.0235,0.0241,0.0251,0.0271,0.0287,0.0308,0.0328,0.0338,0.0354,0.0371,0.0398,0.0394,0.0405,0.0409,0.0422,0.0444,0.0416,0.0416,0.042,0.0474,0.0476,0.0481,0.0444,0.0444,0.0445,0.0472,0,0.0237,0.0275,0.0282,0.0315,0.0333,0.0334,0.0352,0.0366,0.0374,0.039,0.0398,0.0416,0.041,0.0417,0.043,0.0439,0.0455,0.0437,0.0458,0.0459,0.0453,0.0486,0.0488,0.0513,0.0476,0.0477,0.0477,0,0.0276,0.0293,0.0328,0.0345,0.0353,0.0369,0.0388,0.0404,0.0419,0.0424,0.0436,0.0438,0.0459,0.0448,0.0476,0.0464,0.0473,0.0478,0.0479,0.0481,0.0469,0.0487,0.0522,0.0525,0.0483,0.0483,0.0482,0,0.0294,0.0326,0.035,0.0359,0.038,0.0391,0.04,0.0415,0.0427,0.0443,0.045,0.0468,0.0477,0.0491,0.0497,0.0489,0.0524,0.0515,0.0528,0.0527,0.0534,0.0534,0.057,0.0542,0.0542,0.0542,0.0542,0,0.0325,0.0345,0.0359,0.0374,0.0396,0.0404,0.0426,0.0435,0.0448,0.0464,0.0466,0.048,0.0489,0.0504,0.0509,0.0531,0.0535,0.0539,0.054,0.0538,0.0538,0.0544,0.0542,0.0543,0.0543,0.0542,0.0542,0,0.0348,0.0358,0.0385,0.0402,0.0407,0.0423,0.0438,0.0452,0.046,0.048,0.0485,0.0496,0.0515,0.0523,0.0546,0.0549,0.0573,0.0573,0.0568,0.0568,0.0581,0.0579,0.0621,0.0627,0.0596,0.0596,0.0596,0,0.0367,0.0383,0.0402,0.0413,0.0423,0.0441,0.0453,0.046,0.0472,0.0491,0.0502,0.0521,0.0536,0.0565,0.0575,0.0592,0.0592,0.0606,0.0595,0.0592,0.0591,0.059,0.0591,0.0608,0.0608,0.0608,0.0608,0,0.0398,0.0402,0.0419,0.0438,0.0452,0.0467,0.0481,0.049,0.05,0.0513,0.0532,0.0544,0.0567,0.0585,0.0603,0.0611,0.0611,0.0612,0.0616,0.0614,0.061,0.0611,0.0573,0.0611,0.061,0.061,0.061,0.061,0.0419,0.0433,0.0449,0.0467,0.0479,0.0493,0.0507,0.0516,0.0532,0.0552,0.0555,0.0576,0.059,0.0613,0.0623,0.0638,0.0634,0.064,0.0641,0.0642,0.0643,0.0608,0.0641,0.0641,0.0641,0.0641,0.0641,0,0.0449,0.046,0.0477,0.0497,0.0512,0.0511,0.0527,0.0539,0.0557,0.0571,0.0586,0.0607,0.0625,0.0636,0.0653,0.0663,0.0663,0.0667,0.0666,0.0668,0.0645,0.064,0.0667,0.0667,0.0667,0.0667,0.0667,0.0667,0.0467,0.049,0.0496,0.0525,0.0535,0.0555,0.0564,0.0576,0.0587,0.0611,0.0625,0.0633,0.0645,0.0663,0.0679,0.0682,0.0688,0.0692,0.0694,0.0672,0.067,0.0667,0.0662,0.0693,0.0693,0.0715,0.0716,0.0716]},{"header":{"parameterUnit":"m.s-1","parameterCategory":1,"la1":30.2991,"la2":30.254,"lo1":-89.0895,"lo2":-89.0444,"dy":0.0017,"dx":0.0017,"nx":28,"ny":28,"refTime":"2025-05-19T09:00:00:Z","depth":0,"parameterNumber":3,"parameterNumberName":"V-component_of_WINDS"},"data":[0,0,0,0,0,0,0,0,0,0,0,0,0,0,0,0,0,0,0,0,0,0,0,0,0,0,0,0,0,0,0,0,0,0,0,0,0,0,0,0,0,0,0,0,0,0,0,0,0,0,0,0,0,0,0,0,0,0,3.5173,3.5173,0,3.5177,3.5177,3.5177,3.5123,3.5121,3.512,3.5118,3.5121,3.5123,3.5124,0,0,0,0,0,0,0,0,0,0,0,0,0,3.5117,3.5118,3.5173,3.5173,3.5173,3.5177,3.5177,3.5177,3.5123,3.5121,3.5119,3.5118,3.5121,3.5123,3.5124,0,0,0,0,0,0,0,0,0,0,0,0,0,3.5133,3.5118,3.5173,3.5146,3.5144,3.5177,3.5177,3.5177,3.5123,3.5121,3.5119,3.5117,3.512,3.5122,3.5125,3.5182,0,0,3.5131,3.5132,0,0,0,0,0,0,0,0,3.5132,3.5135,3.515,3.5148,3.5146,3.5147,3.5158,3.5179,3.5124,3.5131,3.5118,3.5116,3.5132,3.5133,3.5138,3.5182,3.5183,3.5131,3.5133,3.5134,3.5134,0,0,0,0,0,0,0,3.5131,3.5134,3.5174,3.515,3.5148,3.5134,3.5134,3.5162,3.5144,3.513,3.5126,3.5128,3.513,3.5136,3.5138,3.5183,3.5131,3.5133,3.5135,3.5136,3.5273,3.5276,0,0,0,0,0,0,3.5134,3.5134,3.5174,3.5174,3.5133,3.5137,3.5137,3.5149,3.5143,3.514,3.513,3.5125,3.5134,3.5136,3.5138,3.5204,3.5134,3.5136,3.5137,3.5271,3.5274,3.5276,0,0,0,0,0,0,3.5133,3.5138,3.5174,3.5153,3.5157,3.514,3.5154,3.515,3.5156,3.5143,3.5139,3.514,3.5132,3.5135,3.5172,3.5203,3.5137,3.5139,3.5268,3.5272,3.5275,3.5337,0,0,0,0,0,0,3.5131,3.5138,3.516,3.5154,3.5158,3.5208,3.5156,3.5152,3.516,3.5155,3.5151,3.5148,3.5131,3.5169,3.5174,3.5205,3.514,3.5265,3.527,3.5274,3.5332,3.5342,3.5351,0,0,0,0,0,3.5129,3.5177,3.5161,3.5166,3.5185,3.521,3.5212,3.5191,3.5163,3.5185,3.5176,3.5148,3.52,3.5173,3.5178,3.5211,3.5263,3.5269,3.5274,3.5328,3.534,3.5351,0,0,0,0,0,0,3.5186,3.5175,3.5158,3.5205,3.5209,3.5201,3.5227,3.5205,3.5216,3.521,3.5184,3.5183,3.5224,3.5221,3.5192,3.5266,3.5226,3.5233,3.5266,3.5277,3.5287,3.5285,3.5142,0,0,0,0,0,3.5204,3.5225,3.5215,3.5257,3.526,3.5244,3.5254,3.5237,3.524,3.5241,3.5235,3.5238,3.5255,3.5266,3.5281,3.5332,3.533,3.5357,3.5367,3.5375,3.538,3.5406,3.5417,3.5294,3.5294,3.5294,0,0,3.5241,3.5238,3.5253,3.5269,3.527,3.5292,3.5245,3.5271,3.5287,3.5245,3.5278,3.5275,3.5277,3.5321,3.534,3.5319,3.5414,3.5381,3.5388,3.5389,3.5412,3.5424,3.5434,3.5297,3.5297,3.5296,0,0,3.5319,3.532,3.5355,3.5357,3.5359,3.5348,3.5357,3.5353,3.5348,3.5382,3.5351,3.537,3.5399,3.5402,3.5407,3.5487,3.5462,3.5493,3.5542,3.5567,3.5577,3.5585,3.5612,3.5623,3.5499,3.5499,3.5499,0,3.5364,3.5397,3.5375,3.5403,3.541,3.5375,3.5409,3.5412,3.542,3.5425,3.5403,3.5439,3.5438,3.5481,3.5501,3.5507,3.5515,3.5492,3.5577,3.5585,3.5593,3.5619,3.5629,3.5503,3.5502,3.5502,3.5502,0,3.5452,3.5475,3.5503,3.5511,3.5522,3.5553,3.5535,3.5549,3.5533,3.5524,3.5558,3.5556,3.5569,3.5579,3.5563,3.562,3.5607,3.5582,3.5541,3.5609,3.5632,3.5642,3.5508,3.5507,3.5506,3.5505,0,0,3.5563,3.556,3.5571,3.5573,3.5574,3.5591,3.5621,3.5634,3.5646,3.5653,3.5676,3.5702,3.5679,3.5684,3.5668,3.5691,3.5753,3.5663,3.5662,3.5678,3.5815,3.5833,3.5844,3.5738,3.574,3.5741,3.5814,0,3.5638,3.5688,3.567,3.5721,3.5741,3.5709,3.5734,3.5737,3.573,3.5746,3.5738,3.5757,3.5725,3.5728,3.575,3.5741,3.578,3.5736,3.5758,3.5759,3.5756,3.5857,3.5876,3.5945,3.5823,3.5825,3.5826,0,3.5731,3.5742,3.5795,3.5792,3.58,3.5823,3.5834,3.585,3.5853,3.5846,3.5854,3.5833,3.5861,3.5823,3.5861,3.5831,3.5839,3.5837,3.5839,3.5838,3.5795,3.5857,3.5966,3.5976,3.5841,3.584,3.5839,0,3.5805,3.5833,3.5868,3.5872,3.587,3.5887,3.5887,3.5888,3.5897,3.5907,3.5912,3.5925,3.5932,3.5942,3.5925,3.5899,3.5965,3.5925,3.5959,3.5959,3.5972,3.5971,3.6082,3.5981,3.5981,3.5981,3.5981,0,3.5889,3.5922,3.5901,3.5923,3.5959,3.5938,3.5975,3.5971,3.5972,3.5992,3.5965,3.5984,3.5961,3.5978,3.5965,3.5998,3.6002,3.5996,3.5992,3.5997,3.5998,3.6,3.5994,3.5984,3.5983,3.5983,3.5982,0,3.5976,3.5964,3.6,3.5995,3.5995,3.6022,3.6018,3.6037,3.6029,3.6054,3.6059,3.6045,3.6064,3.6049,3.6067,3.6058,3.6101,3.6091,3.61,3.6096,3.613,3.6126,3.6245,3.6259,3.6151,3.6152,3.6153,0,3.603,3.6055,3.6053,3.6065,3.6066,3.6085,3.6095,3.6076,3.6087,3.6092,3.6111,3.6127,3.6138,3.617,3.6161,3.6175,3.6163,3.6204,3.6165,3.617,3.6162,3.616,3.6161,3.6211,3.6213,3.6214,3.6215,0,3.6125,3.6118,3.6132,3.6146,3.6158,3.6167,3.6174,3.6185,3.6165,3.6179,3.6198,3.6207,3.6226,3.6242,3.6253,3.6252,3.623,3.6227,3.6235,3.624,3.6243,3.624,3.6119,3.6224,3.6223,3.6222,3.6222,3.6222,3.6195,3.6216,3.6218,3.6235,3.6239,3.6246,3.6264,3.6258,3.6274,3.6287,3.6276,3.6298,3.63,3.6312,3.6315,3.6331,3.6314,3.6327,3.6329,3.6332,3.6336,3.6243,3.6334,3.6333,3.6333,3.6333,3.6333,0,3.6287,3.6287,3.6304,3.6315,3.6329,3.6308,3.6315,3.6327,3.6348,3.6352,3.6364,3.6386,3.6401,3.6395,3.6409,3.6423,3.6414,3.6427,3.6425,3.6425,3.6351,3.6342,3.6435,3.6435,3.6435,3.6435,3.6435,3.6435,3.6337,3.637,3.6363,3.6397,3.6397,3.6419,3.6424,3.6431,3.6434,3.6459,3.6472,3.6469,3.6468,3.6482,3.6495,3.6493,3.6498,3.6516,3.651,3.644,3.643,3.6421,3.6411,3.6518,3.6518,3.6581,3.6582,3.6582]}]]